"2010-04-23 00:00:00",49420,9.12,39.69,5.951,1.233,11.09,102.4147,5.462,6.786,90.7,0,109.9,13.46,6.23,1.7
"2010-04-23 00:00:30",49421,8.86,38.6,4.429,0.864,11.32,102.4093,5.448,6.804,90.7,0,109.9,13.46,6.22,0.6
"2010-04-23 00:01:00",49422,9.69,34.85,5.656,0.672,11.39,102.4076,5.444,6.801,90.8,0,109.9,13.46,6.22,356.9
"2010-04-23 00:01:30",49423,10.86,39.75,4.237,1.077,10.9,102.4076,5.444,6.809,90.8,0,109.9,13.46,6.22,1.8
"2010-04-23 00:02:00",49424,9.25,38.52,6.275,1.661,9.67,102.4076,5.444,6.74,90.7,0,109.9,13.46,6.22,0.5
"2010-04-23 00:02:30",49425,7.814,31.46,6.828,1.43,7.709,102.4076,5.444,6.654,90.7,0,109.9,13.46,6.22,353.5
"2010-04-23 00:03:00",49426,8.51,34.55,6.714,1.297,9.25,102.4076,5.444,6.65,90.7,0,109.9,13.46,6.22,356.5
"2010-04-23 00:03:30",49427,10.01,39.59,6.03,1.127,10.36,102.407,5.443,6.727,90.9,0,109.9,13.46,6.21,1.6
"2010-04-23 00:04:00",49428,9.04,37.04,5.362,0.964,10.83,102.4016,5.429,6.743,91,0,109.9,13.46,6.20,359.0
"2010-04-23 00:04:30",49429,8.68,37.86,6.96,1.369,10.08,102.3969,5.417,6.702,91,0,109.9,13.46,6.19,359.9
"2010-04-23 00:05:00",49430,8.66,38.72,5.559,1.003,10.79,102.3887,5.396,6.741,91.1,0,109.9,13.46,6.17,0.7
"2010-04-23 00:05:30",49431,9.32,39.62,6.275,1.236,10.14,102.3878,5.394,6.679,91,0,109.9,13.46,6.16,1.6
"2010-04-23 00:06:00",49432,9.64,39.84,5.354,0.9,10.23,102.3754,5.362,6.679,91,0,109.9,13.46,6.13,1.8
"2010-04-23 00:06:30",49433,8.3,35.54,6.186,1.329,8.53,102.3737,5.357,6.565,90.9,0,109.9,13.46,6.13,357.5
"2010-04-23 00:07:00",49434,9.27,39.55,5.594,1.139,10.29,102.3737,5.357,6.664,91,0,109.9,13.47,6.13,1.5
"2010-04-23 00:07:30",49435,9.41,39.11,6.564,1.464,10.57,102.3737,5.357,6.644,91,0,109.9,13.47,6.13,1.1
"2010-04-23 00:08:00",49436,10.43,43.84,3.029,0.982,11.55,102.3737,5.357,6.649,91,0,109.9,13.47,6.13,5.8
"2010-04-23 00:08:30",49437,9.28,38.61,6.065,1.132,10.85,102.3728,5.355,6.649,91,0,110,13.47,6.13,0.6
"2010-04-23 00:09:00",49438,8.59,37.76,5.283,1.338,10.47,102.3734,5.357,6.616,91,0,109.9,13.47,6.13,359.8
"2010-04-23 00:09:30",49439,7.868,31.57,5.622,1.21,8.27,102.3728,5.355,6.482,90.9,0,109.9,13.47,6.13,353.6
"2010-04-23 00:10:00",49440,8.94,35.03,4.737,1.237,10.01,102.3737,5.357,6.554,90.9,0,109.9,13.47,6.13,357.0
"2010-04-23 00:10:30",49441,7.968,33.68,7.506,1.133,9.5,102.3737,5.357,6.57,91,0,109.9,13.47,6.13,355.7
"2010-04-23 00:11:00",49442,8.92,37.33,6.455,1.145,10.8,102.3737,5.357,6.604,91.1,0,109.9,13.47,6.13,359.3
"2010-04-23 00:11:30",49443,8.65,37.38,6.761,1.271,10.01,102.3737,5.357,6.611,91.2,0,109.9,13.47,6.13,359.4
"2010-04-23 00:12:00",49444,8.24,37.67,5.587,1.128,9.97,102.3737,5.357,6.6,91.3,0,109.9,13.47,6.13,359.7
"2010-04-23 00:12:30",49445,9.35,39.61,7.052,1.644,9.2,102.3737,5.357,6.617,91.3,0,109.9,13.47,6.13,1.6
"2010-04-23 00:13:00",49446,10.51,44.17,5.385,1.242,10.05,102.3737,5.357,6.507,91.1,0,109.9,13.46,6.13,6.2
"2010-04-23 00:13:30",49447,10.58,43.86,5.949,1.081,10.6,102.3737,5.357,6.625,91.2,0,109.9,13.46,6.13,5.9
"2010-04-23 00:14:00",49448,11.68,48.96,3.533,0.926,11.57,102.3737,5.357,6.6,91.1,0,109.9,13.46,6.13,11.0
"2010-04-23 00:14:30",49449,10.52,47.53,4.198,1.101,11.6,102.3737,5.357,6.638,91.1,0,109.9,13.46,6.13,9.5
"2010-04-23 00:15:00",49450,9.91,44.59,5.295,1.146,10.94,102.3737,5.357,6.594,91,0,109.9,13.46,6.13,6.6
"2010-04-23 00:15:30",49451,10.27,45.98,5.341,1.258,10.46,102.3737,5.357,6.613,91,0,109.9,13.46,6.13,8.0
"2010-04-23 00:16:00",49452,8.41,37.41,5.747,1.69,7.342,102.3737,5.357,6.385,90.8,0,109.9,13.46,6.13,359.4
"2010-04-23 00:16:30",49453,10.07,45.96,7.997,1.629,9.69,102.374,5.358,6.587,91.1,0,109.9,13.46,6.13,8.0
"2010-04-23 00:17:00",49454,9.67,47.33,4.65,1.135,11.06,102.3743,5.359,6.607,91,0,109.9,13.46,6.13,9.3
"2010-04-23 00:17:30",49455,8.68,44.77,6.255,1.327,11.49,102.3805,5.375,6.645,91.1,0,109.9,13.46,6.15,6.8
"2010-04-23 00:18:00",49456,7.693,42.29,6.722,1.565,9.64,102.3884,5.395,6.636,91.1,0,109.9,13.46,6.17,4.3
"2010-04-23 00:18:30",49457,8.35,45.92,4.658,0.997,10.78,102.3895,5.398,6.592,91.1,0,109.9,13.47,6.17,7.9
"2010-04-23 00:19:00",49458,5.388,32.87,3.048,1.026,6.463,102.3884,5.395,6.475,91,0,109.9,13.47,6.17,354.9
"2010-04-23 00:19:30",49459,6.677,41.13,6.205,1.505,9.74,102.3929,5.407,6.618,91.2,0,109.9,13.47,6.18,3.1
"2010-04-23 00:20:00",49460,5.959,38.82,7.485,1.281,9.9,102.3952,5.412,6.693,91.3,0,109.9,13.47,6.18,0.8
"2010-04-23 00:20:30",49461,6.103,40.78,8.11,1.598,10.35,102.3966,5.416,6.701,91.3,0,109.9,13.47,6.19,2.8
"2010-04-23 00:21:00",49462,5.561,38.44,8.06,1.518,9.64,102.4022,5.43,6.615,91.3,0,109.9,13.47,6.20,0.4
"2010-04-23 00:21:30",49463,4.47,32.67,4.754,0.836,7.054,102.4036,5.434,6.501,91.2,0,109.9,13.47,6.20,354.7
"2010-04-23 00:22:00",49464,5.013,32.8,6.967,1.384,7.752,102.4051,5.438,6.445,91.2,0,109.9,13.47,6.21,354.8
"2010-04-23 00:22:30",49465,5.536,39.4,7.703,1.767,9.13,102.4056,5.439,6.686,91.5,0,109.9,13.47,6.21,1.4
"2010-04-23 00:23:00",49466,5.938,39.16,7.683,1.95,9.92,102.4056,5.439,6.719,91.5,0,109.9,13.47,6.21,1.2
"2010-04-23 00:23:30",49467,6.266,43.12,5.153,1.276,10.17,102.4028,5.432,6.68,91.6,0,109.9,13.47,6.20,5.1
"2010-04-23 00:24:00",49468,6.908,42.58,5.508,1.251,9.35,102.4014,5.428,6.658,91.6,0,109.9,13.47,6.20,4.6
"2010-04-23 00:24:30",49469,5.751,38.86,6.544,1.351,9.4,102.3988,5.422,6.566,91.5,0,109.9,13.47,6.19,0.9
"2010-04-23 00:25:00",49470,5.714,36.63,7.339,1.312,8.02,102.3923,5.405,6.539,91.5,0,109.9,13.47,6.18,358.6
"2010-04-23 00:25:30",49471,5.673,38.65,6.335,1.269,9.3,102.391,5.402,6.706,91.7,0,109.9,13.47,6.17,0.7
"2010-04-23 00:26:00",49472,6.143,39.86,6.187,1.123,9.26,102.3816,5.378,6.543,91.5,0,109.9,13.47,6.15,1.9
"2010-04-23 00:26:30",49473,6.076,38.68,6.093,1.117,9,102.3751,5.361,6.663,91.7,0,109.9,13.48,6.13,0.7
"2010-04-23 00:27:00",49474,6.077,40.55,5.605,1.243,9.23,102.374,5.358,6.645,91.6,0,109.9,13.47,6.13,2.5
"2010-04-23 00:27:30",49475,5.688,40,6.785,1.321,8.97,102.3737,5.357,6.57,91.6,0,109.9,13.47,6.13,2.0
"2010-04-23 00:28:00",49476,6.258,39.97,6.253,1.168,8.66,102.3745,5.36,6.595,91.6,0,109.9,13.48,6.13,2.0
"2010-04-23 00:28:30",49477,5.771,38.78,5.841,1.144,9.12,102.3757,5.363,6.632,91.7,0,109.9,13.48,6.13,0.8
"2010-04-23 00:29:00",49478,5.43,36.84,7.543,1.233,9.66,102.376,5.363,6.6,91.7,0,109.9,13.47,6.13,358.8
"2010-04-23 00:29:30",49479,5.419,34.64,9.49,1.677,9.93,102.3748,5.36,6.633,91.8,0,109.9,13.47,6.13,356.6
"2010-04-23 00:30:00",49480,5.546,37.75,8.29,1.489,9.72,102.3757,5.363,6.62,91.8,0,109.9,13.47,6.13,359.8
"2010-04-23 00:30:30",49481,4.714,31.42,5.626,1.283,6.458,102.3726,5.355,6.394,91.6,0,109.9,13.47,6.13,353.4
"2010-04-23 00:31:00",49482,5.396,38.45,6.782,1.238,9.04,102.3735,5.357,6.571,91.8,0,109.9,13.47,6.13,0.5
"2010-04-23 00:31:30",49483,5.356,38.54,6.78,1.421,9.08,102.3734,5.357,6.627,91.9,0,109.9,13.47,6.13,0.5
"2010-04-23 00:32:00",49484,5.313,39.83,5.305,0.999,8.94,102.3724,5.354,6.524,91.8,0,109.9,13.47,6.12,1.8
"2010-04-23 00:32:30",49485,5.864,41.21,6,1.246,9.79,102.3661,5.338,6.594,91.9,0,109.9,13.47,6.11,3.2
"2010-04-23 00:33:00",49486,5,33.53,8.46,1.615,9.43,102.3631,5.33,6.603,91.9,0,109.9,13.47,6.10,355.5
"2010-04-23 00:33:30",49487,4.763,34.9,6.396,1.081,6.682,102.3636,5.332,6.392,91.7,0,109.9,13.47,6.10,356.9
"2010-04-23 00:34:00",49488,5.537,33.61,7.478,1.474,8.49,102.3645,5.334,6.545,91.9,0,109.9,13.47,6.10,355.6
"2010-04-23 00:34:30",49489,5.954,38.54,8.13,1.071,9.97,102.3613,5.326,6.578,92,0,109.9,13.48,6.10,0.5
"2010-04-23 00:35:00",49490,4.581,33.88,6.192,1.453,8.62,102.3645,5.334,6.559,92,0,109.9,13.48,6.10,355.9
"2010-04-23 00:35:30",49491,5.701,42.91,8.56,1.237,9.64,102.3654,5.336,6.644,92.1,0,109.9,13.48,6.11,4.9
"2010-04-23 00:36:00",49492,5.703,46.25,9.19,1.16,9.21,102.3666,5.339,6.6,92.1,0,109.9,13.48,6.11,8.2
"2010-04-23 00:36:30",49493,5.062,35.62,4.328,0.88,6.949,102.3651,5.336,6.442,92,0,109.9,13.48,6.11,357.6
"2010-04-23 00:37:00",49494,5.698,40.5,6.79,1.434,9.91,102.3626,5.329,6.576,92.2,0,109.9,13.48,6.10,2.5
"2010-04-23 00:37:30",49495,6.908,53.14,8.35,1.191,9.77,102.3581,5.318,6.62,92.3,0,109.9,13.48,6.09,15.1
"2010-04-23 00:38:00",49496,6.714,54.23,6.405,1.178,9.96,102.3578,5.317,6.594,92.2,0,109.9,13.48,6.09,16.2
"2010-04-23 00:38:30",49497,6.435,49.07,5.742,1.168,9.72,102.3533,5.305,6.554,92.2,0,109.9,13.48,6.08,11.1
"2010-04-23 00:39:00",49498,5.39,47.81,5.628,1.352,8.05,102.3493,5.295,6.456,92.2,0,109.9,13.48,6.07,9.8
"2010-04-23 00:39:30",49499,4.191,42.42,5.378,0.808,6.825,102.3502,5.297,6.493,92.2,0,109.9,13.48,6.07,4.4
"2010-04-23 00:40:00",49500,5.107,48.38,7.931,1.188,8.15,102.3508,5.299,6.485,92.3,0,109.9,13.48,6.07,10.4
"2010-04-23 00:40:30",49501,5.432,45.56,8.13,1.273,9.58,102.3534,5.306,6.598,92.4,0,109.9,13.48,6.08,7.6
"2010-04-23 00:41:00",49502,6.084,56.5,7.358,1.314,10.37,102.3511,5.3,6.585,92.4,0,109.9,13.48,6.07,18.5
"2010-04-23 00:41:30",49503,5.59,52.31,6.967,1.124,9.06,102.3516,5.301,6.527,92.4,0,109.9,13.48,6.07,14.3
"2010-04-23 00:42:00",49504,5.121,57.37,11.3,1.322,8.44,102.3537,5.306,6.51,92.4,0,109.9,13.48,6.08,19.4
"2010-04-23 00:42:30",49505,4.263,50.11,6.359,0.832,6.372,102.3531,5.305,6.417,92.3,0,109.9,13.48,6.08,12.1
"2010-04-23 00:43:00",49506,5.367,50.58,5.586,1.343,8.33,102.3545,5.309,6.491,92.4,0,109.9,13.48,6.08,12.6
"2010-04-23 00:43:30",49507,6.58,55.59,7.379,1.289,10.05,102.3542,5.308,6.621,92.6,0,109.9,13.48,6.08,17.6
"2010-04-23 00:44:00",49508,6.334,54.61,5.547,1.177,10.36,102.3568,5.314,6.593,92.6,0,109.9,13.48,6.09,16.6
"2010-04-23 00:44:30",49509,5.329,64.2,7.875,1.219,9.97,102.3568,5.314,6.633,92.7,0,109.9,13.48,6.09,26.2
"2010-04-23 00:45:00",49510,4.644,58.12,6.498,1.11,8.24,102.3574,5.316,6.525,92.6,0,109.9,13.48,6.09,20.1
"2010-04-23 00:45:30",49511,5.107,50.82,6.227,1.236,7.916,102.3577,5.317,6.425,92.5,0,109.9,13.48,6.09,12.8
"2010-04-23 00:46:00",49512,4.044,41.71,7.275,1.361,7.199,102.358,5.317,6.449,92.5,0,109.9,13.48,6.09,3.7
"2010-04-23 00:46:30",49513,5.778,64.69,4.301,0.86,10.56,102.3612,5.326,6.609,92.7,0,109.9,13.48,6.10,26.7
"2010-04-23 00:47:00",49514,4.747,70.78,8.72,1.342,10.15,102.3603,5.323,6.616,92.7,0,109.9,13.48,6.09,32.8
"2010-04-23 00:47:30",49515,3.582,64.17,8.67,1.303,8.82,102.36,5.323,6.536,92.7,0,109.9,13.48,6.09,26.2
"2010-04-23 00:48:00",49516,3.123,50.85,11.44,1.328,7.289,102.3592,5.32,6.378,92.5,0,109.9,13.48,6.09,12.8
"2010-04-23 00:48:30",49517,4.169,50.76,15.13,1.69,8.08,102.3606,5.324,6.54,92.7,0,109.9,13.48,6.09,12.8
"2010-04-23 00:49:00",49518,4.561,45.01,8.96,1.528,8.13,102.3606,5.324,6.488,92.7,0,109.9,13.48,6.09,7.0
"2010-04-23 00:49:30",49519,4.673,55.31,6.723,1.407,8.14,102.3626,5.329,6.541,92.8,0,109.9,13.48,6.10,17.3
"2010-04-23 00:50:00",49520,5.749,52.16,5.974,1.132,10.66,102.3641,5.333,6.653,92.9,0,109.9,13.48,6.10,14.2
"2010-04-23 00:50:30",49521,6.158,55.15,5.448,1.089,10.58,102.3646,5.334,6.629,92.9,0,109.9,13.48,6.11,17.2
"2010-04-23 00:51:00",49522,6.766,54.29,4.866,0.971,10.65,102.3646,5.334,6.656,92.9,0,109.9,13.48,6.11,16.3
"2010-04-23 00:51:30",49523,7.138,45.74,5.727,1.139,10.06,102.3644,5.334,6.579,92.9,0,109.9,13.48,6.10,7.7
"2010-04-23 00:52:00",49524,7.215,47.35,6.588,1.114,9.39,102.3556,5.311,6.581,92.8,0,109.9,13.48,6.08,9.3
"2010-04-23 00:52:30",49525,6.985,46.08,4.89,1.181,8.95,102.3498,5.296,6.442,92.7,0,109.9,13.48,6.07,8.1
"2010-04-23 00:53:00",49526,5.406,40.63,8.82,1.197,8.98,102.343,5.279,6.522,92.7,0,109.9,13.48,6.05,2.6
"2010-04-23 00:53:30",49527,6.5,40.44,7.187,0.908,9.95,102.3342,5.257,6.536,92.8,0,109.9,13.48,6.03,2.4
"2010-04-23 00:54:00",49528,7.459,46.28,10.97,1.388,10.16,102.3365,5.263,6.561,92.8,0,109.9,13.48,6.03,8.3
"2010-04-23 00:54:30",49529,6.674,48.38,9.38,1.173,10.02,102.3359,5.261,6.477,92.7,0,109.9,13.48,6.03,10.4
"2010-04-23 00:55:00",49530,7.233,46.63,8.73,1.467,9.6,102.3362,5.262,6.551,92.8,0,109.9,13.48,6.03,8.6
"2010-04-23 00:55:30",49531,7.293,48.36,7.86,1.308,10.26,102.3357,5.26,6.532,92.8,0,109.9,13.48,6.03,10.4
"2010-04-23 00:56:00",49532,6.018,47.1,6.092,1.284,9.56,102.3374,5.265,6.487,92.8,0,109.9,13.48,6.04,9.1
"2010-04-23 00:56:30",49533,6.21,47.26,7.808,1.143,10.08,102.3348,5.258,6.507,92.8,0,109.9,13.48,6.03,9.3
"2010-04-23 00:57:00",49534,5.585,36.72,8.39,1.388,9.78,102.3326,5.253,6.516,92.8,0,109.9,13.48,6.02,358.7
"2010-04-23 00:57:30",49535,5.664,40.75,6.82,1.297,8.96,102.3287,5.243,6.37,92.7,0,109.9,13.48,6.01,2.8
"2010-04-23 00:58:00",49536,6.698,43.88,6.596,1.095,10.47,102.3168,5.212,6.505,92.8,0,109.9,13.48,5.98,5.9
"2010-04-23 00:58:30",49537,7.453,48.69,6.212,0.98,10.96,102.3063,5.186,6.483,92.8,0,109.9,13.48,5.96,10.7
"2010-04-23 00:59:00",49538,7.17,50.06,4.725,0.852,11.53,102.3046,5.181,6.523,92.9,0,109.9,13.48,5.95,12.1
"2010-04-23 00:59:30",49539,5.648,38.39,6.355,1.383,9.68,102.3061,5.185,6.422,92.7,0,109.9,13.48,5.96,0.4
"2010-04-23 01:00:00",49540,5.082,39.09,6.821,1.278,8.83,102.3058,5.184,6.373,92.7,0,109.9,13.48,5.95,1.1
"2010-04-23 01:00:30",49541,4.569,33.72,9.64,1.056,7.699,102.3066,5.186,6.304,92.6,0,109.9,13.48,5.96,355.7
"2010-04-23 01:01:00",49542,5.803,49.53,5.562,1.258,9.99,102.3066,5.186,6.44,92.7,0,109.9,13.48,5.96,11.5
"2010-04-23 01:01:30",49543,5.936,49.08,6.351,1.253,9.57,102.3066,5.186,6.382,92.7,0,109.9,13.48,5.96,11.1
"2010-04-23 01:02:00",49544,6.198,45.19,7.48,1.663,8.77,102.3064,5.186,6.37,92.7,0,109.9,13.48,5.96,7.2
"2010-04-23 01:02:30",49545,7.644,47.85,7.101,1.111,9.46,102.3064,5.186,6.381,92.7,0,109.9,13.48,5.96,9.8
"2010-04-23 01:03:00",49546,6.834,49.64,6.875,1.448,9.49,102.3038,5.179,6.43,92.8,0,109.9,13.48,5.95,11.6
"2010-04-23 01:03:30",49547,6.737,51.98,8.3,1.343,9.4,102.3007,5.171,6.391,92.8,0,109.9,13.48,5.94,14.0
"2010-04-23 01:04:00",49548,7.7,57.58,5.406,0.984,10.45,102.297,5.162,6.425,92.8,0,109.9,13.48,5.93,19.6
"2010-04-23 01:04:30",49549,8.12,50.04,5.599,1.377,10.35,102.297,5.162,6.406,92.8,0,109.9,13.48,5.93,12.0
"2010-04-23 01:05:00",49550,7.629,56.16,6.434,1.083,10.27,102.2945,5.155,6.411,92.9,0,109.9,13.48,5.93,18.2
"2010-04-23 01:05:30",49551,7.402,57.69,7.769,1.258,10.24,102.2911,5.147,6.39,92.8,0,109.9,13.48,5.92,19.7
"2010-04-23 01:06:00",49552,6.253,49.82,4.332,0.749,7.13,102.2886,5.14,6.276,92.7,0,109.9,13.48,5.91,11.8
"2010-04-23 01:06:30",49553,7.43,53.54,7.471,1.262,10.38,102.2804,5.119,6.42,92.8,0,109.8,13.48,5.89,15.5
"2010-04-23 01:07:00",49554,6.587,50.06,6.999,1.153,10.09,102.2801,5.118,6.339,92.7,0,109.9,13.48,5.89,12.1
"2010-04-23 01:07:30",49555,6.159,53.26,8.22,1.285,9.77,102.286,5.134,6.401,92.8,0,109.9,13.48,5.90,15.3
"2010-04-23 01:08:00",49556,5.431,49.38,8.1,1.521,9.74,102.2886,5.14,6.394,92.8,0,109.9,13.48,5.91,11.4
"2010-04-23 01:08:30",49557,5.381,51.39,10.71,1.088,9.08,102.2903,5.144,6.38,92.8,0,109.9,13.48,5.91,13.4
"2010-04-23 01:09:00",49558,6.872,48,7.846,1.099,8.46,102.2939,5.154,6.185,92.7,0,109.9,13.48,5.92,10.0
"2010-04-23 01:09:30",49559,7.766,48.08,7.213,1.294,10.04,102.2945,5.155,6.429,92.9,0,109.8,13.49,5.93,10.1
"2010-04-23 01:10:00",49560,7.05,59.88,8.56,1.047,11.08,102.2936,5.153,6.448,92.9,0,109.9,13.49,5.92,21.9
"2010-04-23 01:10:30",49561,6.49,52.53,6.19,1.087,10.79,102.2928,5.151,6.394,92.9,0,109.9,13.49,5.92,14.5
"2010-04-23 01:11:00",49562,4.868,50.55,7.619,1.337,9.07,102.2914,5.147,6.383,92.9,0,109.9,13.49,5.92,12.5
"2010-04-23 01:11:30",49563,4.646,53.68,7.485,1.059,8.06,102.2911,5.147,6.317,92.8,0,109.9,13.49,5.92,15.7
"2010-04-23 01:12:00",49564,3.689,44.15,4.762,0.489,5.962,102.2931,5.152,6.147,92.7,0,109.9,13.52,5.92,6.2
"2010-04-23 01:12:30",49565,3.854,44.8,8.96,1.126,8.25,102.2942,5.155,6.343,92.9,0,109.9,13.49,5.92,6.8
"2010-04-23 01:13:00",49566,4.165,57.14,7.747,1.276,9.85,102.2962,5.16,6.369,92.9,0,109.9,13.49,5.93,19.1
"2010-04-23 01:13:30",49567,4.37,53.63,9.16,1.283,9.07,102.2987,5.166,6.462,93,0,109.9,13.5,5.94,15.6
"2010-04-23 01:14:00",49568,4.69,47.98,11.05,1.126,9.56,102.2996,5.168,6.416,93,0,109.9,13.5,5.94,10.0
"2010-04-23 01:14:30",49569,3.624,55.51,13.43,1.216,8.6,102.3021,5.175,6.363,92.9,0,109.9,13.5,5.94,17.5
"2010-04-23 01:15:00",49570,3.329,59.52,12.49,1.015,6.558,102.3047,5.181,6.167,92.8,0,109.9,13.5,5.95,21.5
"2010-04-23 01:15:30",49571,3.763,63.36,4.301,1.003,7.629,102.3061,5.185,6.336,93,0,109.9,13.5,5.96,25.4
"2010-04-23 01:16:00",49572,5.807,56.71,9.63,1.01,10.29,102.3064,5.186,6.422,93,0,109.9,13.5,5.96,18.7
"2010-04-23 01:16:30",49573,5.62,63.15,10.58,1.05,10.11,102.3066,5.186,6.415,93,0,109.9,13.5,5.96,25.2
"2010-04-23 01:17:00",49574,5.412,52.08,7.907,1.129,9.71,102.3047,5.181,6.428,93.1,0,109.9,13.5,5.95,14.1
"2010-04-23 01:17:30",49575,5.172,52.47,6.188,1.072,9.61,102.3016,5.173,6.389,93,0,109.9,13.5,5.94,14.5
"2010-04-23 01:18:00",49576,3.116,53.05,4.423,0.72,6.179,102.3027,5.176,6.183,92.8,0,109.9,13.5,5.95,15.0
"2010-04-23 01:18:30",49577,2.754,58.3,4.878,0.163,6.205,102.3024,5.175,6.184,92.8,0,109.9,13.49,5.95,20.3
"2010-04-23 01:19:00",49578,3.983,70.11,5.934,1.318,9.03,102.3021,5.175,6.365,93,0,109.9,13.49,5.94,32.1
"2010-04-23 01:19:30",49579,4.264,77.16,10.44,1.338,9.47,102.303,5.177,6.421,93,0,109.9,13.49,5.95,39.2
"2010-04-23 01:20:00",49580,4.237,69.15,8.32,1.295,9.73,102.3027,5.176,6.412,93,0,109.9,13.49,5.95,31.2
"2010-04-23 01:20:30",49581,4.338,51.32,7.687,1.107,8.72,102.3044,5.181,6.369,93,0,109.9,13.49,5.95,13.3
"2010-04-23 01:21:00",49582,3.563,52.9,9.78,1.011,8.07,102.3052,5.183,6.301,92.9,0,109.9,13.49,5.95,14.9
"2010-04-23 01:21:30",49583,2.683,49.53,3.773,0.184,5.96,102.3058,5.184,6.217,92.8,0,109.9,13.52,5.95,11.5
"2010-04-23 01:22:00",49584,4.212,59.73,8.84,1.185,7.597,102.3058,5.184,6.209,92.8,0,109.9,13.49,5.95,21.7
"2010-04-23 01:22:30",49585,4.875,70.96,7.444,1.173,9.72,102.3058,5.184,6.466,93.1,0,109.9,13.49,5.95,33.0
"2010-04-23 01:23:00",49586,5.614,69.91,6.442,0.693,11.14,102.3061,5.185,6.43,93.1,0,109.9,13.5,5.96,31.9
"2010-04-23 01:23:30",49587,3.537,55.67,9.9,1.161,7.827,102.3061,5.185,6.317,92.9,0,109.9,13.5,5.96,17.7
"2010-04-23 01:24:00",49588,4.298,77.84,8.6,1.039,9.63,102.3055,5.183,6.449,93,0,109.9,13.5,5.95,39.8
"2010-04-23 01:24:30",49589,3.509,67.18,6.26,1.018,6.969,102.3061,5.185,6.204,92.8,0,109.9,13.5,5.96,29.2
"2010-04-23 01:25:00",49590,2.859,50.27,4.919,0.313,6.139,102.3055,5.183,6.204,92.8,0,109.9,13.53,5.95,12.3
"2010-04-23 01:25:30",49591,4.307,56.41,6.879,1.329,9.44,102.303,5.177,6.441,93,0,109.9,13.5,5.95,18.4
"2010-04-23 01:26:00",49592,4.403,66.36,6.297,1.192,10.27,102.3024,5.175,6.443,93,0,109.9,13.5,5.95,28.4
"2010-04-23 01:26:30",49593,2.861,64.38,6.914,1.05,7.765,102.3016,5.173,6.39,93,0,109.9,13.5,5.94,26.4
"2010-04-23 01:27:00",49594,3.335,61.37,5.942,1.305,7.922,102.301,5.172,6.292,92.9,0,109.9,13.5,5.94,23.4
"2010-04-23 01:27:30",49595,3.1,67.26,11.76,1.258,8.07,102.3004,5.17,6.369,92.9,0,109.9,13.5,5.94,29.3
"2010-04-23 01:28:00",49596,2.227,67.15,2.975,0.076,5.944,102.299,5.167,6.231,92.8,0,109.9,13.53,5.94,29.2
"2010-04-23 01:28:30",49597,2.12,68.18,4.874,0.113,6.206,102.3004,5.17,6.241,92.8,0,109.9,13.53,5.94,30.2
"2010-04-23 01:29:00",49598,3.697,87.4,5.845,1.193,10.06,102.301,5.172,6.46,93,0,109.9,13.5,5.94,49.4
"2010-04-23 01:29:30",49599,4.002,83.4,8.82,1.186,9.82,102.2996,5.168,6.375,92.9,0,109.9,13.5,5.94,45.4
"2010-04-23 01:30:00",49600,3.815,78.31,8.37,1.298,8.36,102.2999,5.169,6.337,92.8,0,109.9,13.5,5.94,40.3
"2010-04-23 01:30:30",49601,3.875,83.6,7.866,1.357,8.67,102.3004,5.17,6.377,92.9,0,109.9,13.5,5.94,45.6
"2010-04-23 01:31:00",49602,3.347,81.3,2.507,0.512,6.669,102.3004,5.17,6.329,92.8,0,109.9,13.51,5.94,43.3
"2010-04-23 01:31:30",49603,3.624,94.4,5.498,1.376,8.11,102.3027,5.176,6.272,92.8,0,109.9,13.5,5.95,56.4
"2010-04-23 01:32:00",49604,3.941,105,10.6,1.263,9.63,102.3066,5.186,6.46,92.9,0,109.9,13.5,5.96,67.0
"2010-04-23 01:32:30",49605,4.116,87.6,8.18,1.312,9.66,102.3064,5.186,6.47,92.9,0,109.9,13.5,5.96,49.6
"2010-04-23 01:33:00",49606,5.551,90.9,8.03,1.208,10.63,102.3066,5.186,6.491,93,0,109.9,13.5,5.96,52.9
"2010-04-23 01:33:30",49607,5.914,92.2,7.511,1.22,9.5,102.3066,5.186,6.516,93,0,109.9,13.5,5.96,54.2
"2010-04-23 01:34:00",49608,6.271,96.7,6.991,1.003,9.57,102.3066,5.186,6.443,92.9,0,109.9,13.5,5.96,58.7
"2010-04-23 01:34:30",49609,4.78,92.5,6.5,1.231,9.41,102.3058,5.184,6.405,92.9,0,109.9,13.5,5.95,54.5
"2010-04-23 01:35:00",49610,5.26,87.1,4.891,1.037,10.47,102.3055,5.183,6.555,93,0,109.9,13.5,5.95,49.1
"2010-04-23 01:35:30",49611,5.811,80.5,4.051,0.669,11.08,102.303,5.177,6.54,93,0,109.9,13.49,5.95,42.5
"2010-04-23 01:36:00",49612,5.097,79.25,7.264,1.175,10.79,102.2982,5.165,6.538,92.9,0,109.9,13.49,5.93,41.2
"2010-04-23 01:36:30",49613,5.651,80.1,6.093,1.257,10.43,102.2883,5.139,6.471,92.8,0,109.9,13.49,5.91,42.1
"2010-04-23 01:37:00",49614,6.542,76.1,6.394,1.163,9.65,102.2744,5.104,6.431,92.7,0,109.8,13.49,5.87,38.1
"2010-04-23 01:37:30",49615,7.203,72.37,5.611,0.846,11.26,102.2727,5.1,6.502,92.7,0,109.9,13.49,5.87,34.4
"2010-04-23 01:38:00",49616,7.396,79.7,6.064,0.835,11.61,102.2722,5.098,6.487,92.5,0,109.9,13.49,5.87,41.7
"2010-04-23 01:38:30",49617,5.822,86.2,7.676,0.745,11.73,102.2617,5.071,6.465,92.3,0,109.9,13.49,5.84,48.2
"2010-04-23 01:39:00",49618,4.474,89.1,17.34,0.84,11.75,102.2445,5.027,6.425,92,0,109.9,13.49,5.80,51.1
"2010-04-23 01:39:30",49619,4.209,77.54,15.86,0.839,11.22,102.2388,5.013,6.421,91.8,0,109.9,13.49,5.78,39.5
"2010-04-23 01:40:00",49620,4.988,58.42,23.88,1.041,10.28,102.2388,5.013,6.326,91.5,0,109.9,13.49,5.78,20.4
"2010-04-23 01:40:30",49621,3.995,47.67,13.91,0.896,7.737,102.2391,5.014,6.182,91.2,0,109.8,13.49,5.78,9.7
"2010-04-23 01:41:00",49622,3.178,56.81,6.312,0.846,7.57,102.2408,5.018,6.075,91,0,109.9,13.49,5.79,18.8
"2010-04-23 01:41:30",49623,3.582,76.64,6.883,1.14,9.7,102.2386,5.012,6.228,91,0,109.8,13.5,5.78,38.6
"2010-04-23 01:42:00",49624,6.297,76.16,9.17,0.966,10.74,102.2374,5.009,6.271,91,0,109.8,13.5,5.78,38.2
"2010-04-23 01:42:30",49625,5.648,92,8.35,1.154,8.61,102.2392,5.014,6.32,91,0,109.8,13.5,5.78,54.0
"2010-04-23 01:43:00",49626,4.192,91.5,7.585,1.317,9.69,102.2426,5.023,6.27,90.9,0,109.9,13.5,5.79,53.5
"2010-04-23 01:43:30",49627,3.632,86,6.732,0.963,8.33,102.242,5.021,6.205,90.8,0,109.8,13.5,5.79,48.0
"2010-04-23 01:44:00",49628,3.851,86.7,4.42,1.1,8.12,102.2446,5.028,6.155,90.8,0,109.9,13.5,5.80,48.7
"2010-04-23 01:44:30",49629,4.512,74.4,10.47,1.178,8.16,102.2446,5.028,6.132,90.8,0,109.9,13.5,5.80,36.4
"2010-04-23 01:45:00",49630,6.034,68.6,14.08,1.316,10.59,102.244,5.026,6.268,91,0,109.8,13.5,5.80,30.6
"2010-04-23 01:45:30",49631,6.935,64.09,8.17,1.574,10.94,102.2452,5.029,6.321,91,0,109.8,13.5,5.80,26.1
"2010-04-23 01:46:00",49632,6.975,61.5,7.283,1.254,10.42,102.2449,5.029,6.331,90.9,0,109.8,13.5,5.80,23.5
"2010-04-23 01:46:30",49633,6.206,50.08,12.17,1.389,9.65,102.246,5.031,6.303,90.8,0,109.8,13.5,5.80,12.1
"2010-04-23 01:47:00",49634,6.523,59.41,6.753,1.324,9.53,102.246,5.031,6.189,90.6,0,109.8,13.5,5.80,21.4
"2010-04-23 01:47:30",49635,5.935,59.28,7.988,1.154,9,102.2452,5.029,6.188,90.5,0,109.8,13.5,5.80,21.3
"2010-04-23 01:48:00",49636,5.519,62.94,7.446,1.312,9.52,102.243,5.024,6.269,90.5,0,109.8,13.5,5.79,24.9
"2010-04-23 01:48:30",49637,7.029,74.66,11.29,0.882,11.48,102.2439,5.026,6.288,90.5,0,109.8,13.5,5.80,36.7
"2010-04-23 01:49:00",49638,7.644,82,9.15,0.936,11.2,102.2458,5.031,6.281,90.3,0,109.8,13.5,5.80,44.0
"2010-04-23 01:49:30",49639,6.646,68.99,9.08,1.42,10.25,102.2467,5.033,6.28,90,0,109.8,13.5,5.80,31.0
"2010-04-23 01:50:00",49640,4.057,91.8,20.22,1.429,10.46,102.2481,5.037,6.248,89.7,0,109.8,13.5,5.81,53.8
"2010-04-23 01:50:30",49641,3.281,115.8,27.66,1.44,9.19,102.2498,5.041,6.085,89.2,0,109.8,13.5,5.81,77.8
"2010-04-23 01:51:00",49642,1.774,150.4,17.85,0.905,8.67,102.2521,5.047,6.181,89,0,109.8,13.5,5.82,112.4
"2010-04-23 01:51:30",49643,3.194,121.3,13.86,1.267,9.74,102.2487,5.038,6.135,88.6,0,109.8,13.5,5.81,83.3
"2010-04-23 01:52:00",49644,3.59,86.7,8.91,1.172,8.48,102.2527,5.048,6.139,88.1,0,109.8,13.5,5.82,48.7
"2010-04-23 01:52:30",49645,5.199,99.7,8.64,1.048,10.5,102.2535,5.051,6.138,87.8,0,109.8,13.5,5.82,61.7
"2010-04-23 01:53:00",49646,3.539,90.6,8.23,1.022,9.96,102.255,5.054,6.245,87.6,0,109.8,13.5,5.82,52.6